Tampa, FL

3:52 PM EDT on May 29, 2017 (GMT -0400)
Tampa International

Weather History for KTPA - December, 2013

Change the Weather History Date:

Monday, December 16, 2013

  Actual Average Record
Temperature  
Mean Temperature 58 °F 63 °F  
Max Temperature 66 °F 72 °F 85 °F (2001)
Min Temperature 49 °F 54 °F 29 °F (1968)
Degree Days  
Heating Degree Days 7 5  
Month to date heating degree days 12 58  
Since 1 July heating degree days 42 102  
Cooling Degree Days 0 2  
Month to date cooling degree days 97 48  
Year to date cooling degree days 3833 3578  
Growing Degree Days 7 (Base 50)    
Moisture  
Dew Point 44 °F    
Average Humidity 65    
Maximum Humidity 89    
Minimum Humidity 40    
Precipitation  
Precipitation 0.00 in 0.09 in 1.01 in (1979)
Month to date precipitation 0.25 1.23  
Year to date precipitation 51.92 45.06  
Sea Level Pressure  
Sea Level Pressure 30.19 in    
Wind  
Wind Speed 8 mph (NNE)    
Max Wind Speed 14 mph    
Max Gust Speed 20 mph    
Visibility 10 miles    
Events      
T = Trace of Precipitation, MM = Missing Value Source: NWS Daily Summary

Daily Weather History Graph

Daily Weather History Graph

Search for Another Location

Airport or City:

Trip Planner

Search our weather history database for the weather conditions in past years. The results will help you decide how hot, cold, wet, or windy it might be!

Date:

Astronomy

Dec. 16, 2013 Rise Set
Actual Time 7:14 AM EST 5:37 PM EST
Civil Twilight 6:48 AM EST 6:03 PM EST
Nautical Twilight 6:19 AM EST 6:32 PM EST
Astronomical Twilight 5:50 AM EST 7:01 PM EST
Moon 5:22 PM EST (12/16) 6:26 AM EST (12/16)
Length of Visible Light 11h 14m
Length of Day
10h 22m
Full, 100% of the Moon is Illuminated
Dec 16
Full
Dec 17
Full
Dec 25
Last Quarter
Jan 1
New
Jan 7
First Quarter

Hourly Weather History & Observations

Time (EST) Temp. Dew Point Humidity Pressure Visibility Wind Dir Wind Speed Gust Speed Precip Events Conditions
12:53 AM 57.9 °F 53.1 °F 84% 30.15 in 10.0 mi North 11.5 mph - N/A   Mostly Cloudy
1:53 AM 57.0 °F 51.1 °F 81% 30.15 in 10.0 mi North 8.1 mph - N/A   Scattered Clouds
2:53 AM 55.0 °F 51.1 °F 86% 30.14 in 10.0 mi North 6.9 mph - N/A   Mostly Cloudy
3:35 AM 55.4 °F 51.8 °F 88% 30.14 in 10.0 mi NNE 10.4 mph - N/A   Mostly Cloudy
3:53 AM 55.0 °F 51.1 °F 86% 30.15 in 10.0 mi NNE 10.4 mph - N/A   Mostly Cloudy
4:25 AM 55.4 °F 50.0 °F 82% 30.15 in 10.0 mi NNE 10.4 mph - N/A   Overcast
4:53 AM 55.0 °F 48.9 °F 80% 30.16 in 10.0 mi North 12.7 mph - N/A   Overcast
5:53 AM 54.0 °F 50.0 °F 86% 30.16 in 10.0 mi NNE 9.2 mph - N/A   Overcast
6:39 AM 55.4 °F 50.0 °F 82% 30.17 in 10.0 mi NE 12.7 mph - N/A   Mostly Cloudy
6:53 AM 54.0 °F 50.0 °F 86% 30.18 in 10.0 mi NNE 12.7 mph - N/A   Mostly Cloudy
7:53 AM 48.9 °F 42.1 °F 77% 30.21 in 10.0 mi NNE 8.1 mph - N/A   Scattered Clouds
8:53 AM 50.0 °F 42.1 °F 74% 30.22 in 10.0 mi NNE 5.8 mph - N/A   Scattered Clouds
9:53 AM 52.0 °F 42.1 °F 69% 30.24 in 10.0 mi North 5.8 mph - N/A   Partly Cloudy
10:53 AM 55.9 °F 44.1 °F 64% 30.25 in 10.0 mi NNE 5.8 mph - N/A   Partly Cloudy
11:53 AM 60.1 °F 42.1 °F 51% 30.22 in 10.0 mi Variable 6.9 mph - N/A   Partly Cloudy
12:53 PM 62.1 °F 41.0 °F 46% 30.19 in 10.0 mi NNE 5.8 mph - N/A   Scattered Clouds
1:53 PM 64.9 °F 39.0 °F 39% 30.17 in 10.0 mi North 8.1 mph - N/A   Scattered Clouds
2:53 PM 64.9 °F 39.0 °F 39% 30.16 in 10.0 mi North 8.1 mph - N/A   Scattered Clouds
3:53 PM 64.9 °F 39.0 °F 39% 30.16 in 10.0 mi North 9.2 mph - N/A   Partly Cloudy
4:53 PM 64.0 °F 39.0 °F 40% 30.17 in 10.0 mi NNE 6.9 mph - N/A   Partly Cloudy
5:53 PM 57.0 °F 45.0 °F 64% 30.19 in 10.0 mi NNW 6.9 mph - N/A   Partly Cloudy
6:53 PM 55.9 °F 45.0 °F 67% 30.22 in 10.0 mi North 6.9 mph 18.4 mph N/A   Clear
7:53 PM 54.0 °F 45.0 °F 72% 30.23 in 10.0 mi North 8.1 mph - N/A   Clear
8:53 PM 53.1 °F 43.0 °F 69% 30.25 in 10.0 mi NNE 5.8 mph - N/A   Clear
9:53 PM 53.1 °F 39.9 °F 61% 30.25 in 10.0 mi NE 5.8 mph - N/A   Clear
10:53 PM 52.0 °F 39.9 °F 63% 30.25 in 10.0 mi NE 6.9 mph - N/A   Clear
11:53 PM 50.0 °F 41.0 °F 71% 30.24 in 10.0 mi NE 3.5 mph - N/A   Clear